This is the latest recevied weather packets stored in our database for station/object KD7ECD. If no packets are shown the sender has not sent any weather packets the latest 10 day(s).
| Time | Temp. | Humidity | Pressure | Rain* | Wind** | Luminosity | Snow |
|---|---|---|---|---|---|---|---|
| 1777543586 | 6.67° C | 97% | 1017.9 hPa | 0 mm | - | 0 W/m² | - |
| 1777542984 | 7.22° C | 97% | 1017.6 hPa | 0 mm | - | 0 W/m² | - |
| 1777542383 | 6.67° C | 97% | 1017.9 hPa | 0 mm | - | 0 W/m² | - |
| 1777541783 | 7.22° C | 97% | 1018.1 hPa | 0 mm | - | 0 W/m² | - |
| 1777541182 | 7.78° C | 97% | 1017.9 hPa | 0 mm | - | 0 W/m² | - |
| 1777540576 | 7.22° C | 97% | 1018.2 hPa | 0 mm | - | 0 W/m² | - |
| 1777539974 | 7.22° C | 97% | 1018.5 hPa | 0 mm | - | 0 W/m² | - |
| 1777539373 | 7.22° C | 97% | 1018.3 hPa | 0 mm | - | 0 W/m² | - |
| 1777538771 | 6.67° C | 97% | 1018.6 hPa | 0 mm | - | 0 W/m² | - |
| 1777538168 | 7.22° C | 97% | 1018.7 hPa | 0 mm | - | 0 W/m² | - |
| 1777537566 | 7.78° C | 97% | 1018.7 hPa | 0 mm | - | 0 W/m² | - |
| 1777536963 | 7.78° C | 97% | 1018.9 hPa | 0 mm | - | 0 W/m² | - |
| 1777536359 | 7.78° C | 97% | 1018.8 hPa | 0 mm | - | 0 W/m² | - |
| 1777535756 | 8.33° C | 96% | 1018.9 hPa | 0 mm | - | 0 W/m² | - |
| 1777535150 | 7.78° C | 96% | 1018.9 hPa | 0 mm | - | 0 W/m² | - |
| 1777534549 | 8.33° C | 95% | 1019.2 hPa | 0 mm | - | 0 W/m² | - |
| 1777533944 | 8.33° C | 95% | 1019 hPa | 0 mm | - | 0 W/m² | - |
| 1777533343 | 8.33° C | 94% | 1019.4 hPa | 0 mm | - | 0 W/m² | - |
| 1777532743 | 9.44° C | 94% | 1019 hPa | 0 mm | - | 0 W/m² | - |
| 1777532142 | 10° C | 93% | 1019.2 hPa | 0 mm | - | 0 W/m² | - |
| 1777531538 | 10° C | 92% | 1019 hPa | 0 mm | - | 0 W/m² | - |
| 1777530934 | 10° C | 91% | 1019.2 hPa | 0 mm | - | 0 W/m² | - |
| 1777530334 | 9.44° C | 90% | 1019.1 hPa | 0 mm | - | 0 W/m² | - |
| 1777529734 | 9.44° C | 89% | 1019.1 hPa | 0 mm | - | 0 W/m² | - |
| 1777529133 | 9.44° C | 88% | 1019.4 hPa | 0 mm | - | 0 W/m² | - |
* Rain latest hour (hover to see other rain measurements)
** Current wind speed in m/s (hover to see current wind gust speed)